Location: Cahas Mountain Overlook
(37.0833°N, 80.1000°W)
Time: 20:50:42
(UTC-05:00)

Explorer 7 - Visible Passes

Search period start: 27 January 2022 00:00
Search period end: 06 February 2022 00:00
Orbit: 483 x 674 km, 50.3° (Epoch: 27 January)

Date Brightness Start Highest point End Pass type
(mag) Time Alt. Az. Time Alt. Az. Time Alt. Az.
31 Jan 9.5 06:04:56 10° S 06:07:30 17° SE 06:10:08 10° E visible
01 Feb 8.5 06:07:49 10° SSW 06:11:09 30° SE 06:14:36 10° ENE visible
02 Feb 7.3 06:11:12 10° SW 06:14:52 54° SE 06:18:42 10° ENE visible
03 Feb 9.8 04:38:55 10° SE 04:38:55 10° SE 04:39:30 10° ESE visible
03 Feb 6.5 06:15:14 12° SW 06:18:40 86° NW 06:22:36 10° NE visible
04 Feb 9.4 04:43:31 17° ESE 04:43:31 17° ESE 04:45:10 10° E visible
04 Feb 6.8 06:19:49 17° WSW 06:22:32 51° NW 06:26:23 10° NE visible
05 Feb 9.1 04:47:53 21° E 04:47:53 21° E 04:49:34 10° ENE visible
05 Feb 7.5 06:24:09 17° W 06:26:29 33° NNW 06:30:05 10° NE visible
